Myrtle Beach, SC

5:19 AM EDT on June 29, 2017 (GMT -0400)
Myrtle Beach International

Weather History for KMYR - February, 2012

Change the Weather History Date:

Monday, February 20, 2012

  Actual Average Record
Temperature  
Mean Temperature 45 °F -  
Max Temperature 53 °F 57 °F 77 °F (1949)
Min Temperature 37 °F 38 °F 17 °F (2015)
Degree Days  
Heating Degree Days 20    
Moisture  
Dew Point 30 °F    
Average Humidity 65    
Maximum Humidity 81    
Minimum Humidity 38    
Precipitation  
Precipitation 0.01 in - - ()
Sea Level Pressure  
Sea Level Pressure 30.10 in    
Wind  
Wind Speed 13 mph (NNW)    
Max Wind Speed 17 mph    
Max Gust Speed 28 mph    
Visibility 10 miles    
Events      
Averages and records for this station are not official NWS values.
T = Trace of Precipitation, MM = Missing Value Source: NWS Daily Summary

Daily Weather History Graph

Daily Weather History Graph

Search for Another Location

Airport or City:

Trip Planner

Search our weather history database for the weather conditions in past years. The results will help you decide how hot, cold, wet, or windy it might be!

Date:

Astronomy

Feb. 20, 2012 Rise Set
Actual Time 6:55 AM EST 6:04 PM EST
Civil Twilight 6:29 AM EST 6:29 PM EST
Nautical Twilight 6:00 AM EST 6:58 PM EST
Astronomical Twilight 5:32 AM EST 7:27 PM EST
Moon 5:49 AM EST (2/20) 5:07 PM EST (2/20)
Length of Visible Light 11h 59m
Length of Day
11h 08m
Waning Crescent, 2% of the Moon is Illuminated
Feb 20
Waning Crescent
Feb 21
New
Feb 29
First Quarter
Mar 8
Full
Mar 14
Last Quarter

Hourly Weather History & Observations

Time (EST) Temp. Windchill Dew Point Humidity Pressure Visibility Wind Dir Wind Speed Gust Speed Precip Events Conditions
12:15 AM 41.0 °F 33.1 °F 33.8 °F 76% 29.83 in 10.0 mi NNW 15.0 mph 23.0 mph N/A   Overcast
12:35 AM 39.2 °F 30.8 °F 33.8 °F 81% 29.86 in 10.0 mi NW 15.0 mph 23.0 mph N/A   Overcast
12:55 AM 39.2 °F 30.5 °F 32.0 °F 75% 29.87 in 10.0 mi NNW 16.1 mph 23.0 mph N/A   Overcast
1:15 AM 39.2 °F 31.2 °F 32.0 °F 75% 29.88 in 10.0 mi NNW 13.8 mph 17.3 mph N/A   Overcast
1:35 AM 39.2 °F 31.6 °F 30.2 °F 70% 29.90 in 10.0 mi NW 12.7 mph 19.6 mph N/A   Overcast
1:55 AM 39.2 °F 32.0 °F 30.2 °F 70% 29.91 in 10.0 mi NNW 11.5 mph 27.6 mph N/A   Overcast
2:15 AM 39.2 °F 32.0 °F 30.2 °F 70% 29.93 in 10.0 mi NNW 11.5 mph 21.9 mph N/A   Overcast
2:35 AM 37.4 °F 29.3 °F 28.4 °F 70% 29.93 in 10.0 mi NNW 12.7 mph 23.0 mph N/A   Overcast
2:55 AM 37.4 °F 29.8 °F 28.4 °F 70% 29.95 in 10.0 mi NNW 11.5 mph 18.4 mph N/A   Overcast
3:15 AM 37.4 °F 29.8 °F 28.4 °F 70% 29.96 in 10.0 mi NW 11.5 mph 19.6 mph N/A   Overcast
3:35 AM 37.4 °F 28.9 °F 30.2 °F 75% 29.96 in 10.0 mi NNW 13.8 mph 17.3 mph N/A   Overcast
3:55 AM 37.4 °F 29.3 °F 30.2 °F 75% 29.97 in 10.0 mi NNW 12.7 mph - N/A   Overcast
4:15 AM 37.4 °F 28.2 °F 30.2 °F 75% 29.97 in 10.0 mi NNW 16.1 mph 20.7 mph N/A   Overcast
4:35 AM 37.4 °F 28.9 °F 30.2 °F 75% 29.99 in 10.0 mi NNW 13.8 mph 24.2 mph N/A   Overcast
4:55 AM 39.2 °F 30.5 °F 30.2 °F 70% 29.99 in 10.0 mi NNW 16.1 mph 19.6 mph N/A   Overcast
5:15 AM 39.2 °F 30.8 °F 30.2 °F 70% 30.01 in 10.0 mi NNW 15.0 mph 19.6 mph N/A   Overcast
5:35 AM 39.2 °F 31.2 °F 30.2 °F 70% 30.04 in 10.0 mi NNW 13.8 mph 19.6 mph N/A   Overcast
5:50 AM 39.2 °F 30.8 °F 28.4 °F 65% 30.06 in 10.0 mi North 15.0 mph 23.0 mph N/A   Overcast
5:55 AM 39.2 °F 31.2 °F 30.2 °F 70% 30.05 in 10.0 mi NNW 13.8 mph 21.9 mph N/A   Overcast
6:50 AM 37.4 °F 31.4 °F 28.4 °F 70% 30.10 in 10.0 mi NNW 8.1 mph - N/A   Mostly Cloudy
7:45 AM 37.4 °F 30.3 °F 28.4 °F 70% 30.14 in 10.0 mi NNW 10.4 mph 17.3 mph N/A   Overcast
8:45 AM 39.2 °F 30.5 °F 30.2 °F 70% 30.16 in 10.0 mi North 16.1 mph 24.2 mph N/A   Mostly Cloudy
9:50 AM 42.8 °F 35.1 °F 32.0 °F 66% 30.19 in 10.0 mi North 16.1 mph 25.3 mph N/A   Scattered Clouds
10:50 AM 46.4 °F 39.8 °F 30.2 °F 53% 30.20 in 10.0 mi North 16.1 mph 25.3 mph N/A   Partly Cloudy
11:50 AM 48.2 °F - 32.0 °F 54% 30.21 in 10.0 mi North 17.3 mph 23.0 mph N/A   Clear
12:50 PM 51.8 °F - 30.2 °F 44% 30.20 in 10.0 mi North 17.3 mph 23.0 mph N/A   Clear
1:45 PM 53.6 °F - 32.0 °F 44% 30.20 in 10.0 mi North 12.7 mph 23.0 mph N/A   Clear
2:50 PM 53.6 °F - 30.2 °F 41% 30.21 in 10.0 mi North 13.8 mph 20.7 mph N/A   Clear
3:45 PM 53.6 °F - 28.4 °F 38% 30.23 in 10.0 mi North 13.8 mph - N/A   Clear
4:50 PM 53.6 °F - 30.2 °F 41% 30.25 in 10.0 mi North 9.2 mph - N/A   Clear
5:45 PM 51.8 °F - 26.6 °F 38% 30.27 in 10.0 mi North 9.2 mph - N/A   Clear
6:45 PM 42.8 °F 38.6 °F 30.2 °F 61% 30.29 in 10.0 mi North 6.9 mph - N/A   Clear
7:45 PM 41.0 °F 36.4 °F 32.0 °F 70% 30.29 in 10.0 mi North 6.9 mph - N/A   Clear
8:50 PM 41.0 °F 36.4 °F 32.0 °F 70% 30.32 in 10.0 mi North 6.9 mph - N/A   Clear
10:55 PM 39.2 °F 37.0 °F 30.2 °F 70% 30.33 in 10.0 mi NNE 3.5 mph - N/A   Clear
11:15 PM 39.2 °F 37.0 °F 30.2 °F 70% 30.32 in 10.0 mi NNE 3.5 mph - N/A   Clear
11:35 PM 39.2 °F - 28.4 °F 65% 30.33 in 10.0 mi Calm Calm - N/A   Clear
11:55 PM 39.2 °F 37.0 °F 30.2 °F 70% 30.33 in 10.0 mi NW 3.5 mph - N/A   Clear